Weather Roundup
Issued by NWS

Home | Current Version | Previous Version | Graphics & Text | Print | Product List | Glossary Off
Versions: 1 2 3 4 5 6 7 8 9 10 11 12 13 14 15 16 17 18 19 20 21 22 23 24 25 26 27 28 29 30 31 32 33 34 35 36 37 38 39 40 41 42 43 44 45 46 47 48 49 50

000
NZUS93 KARX 240310
HRRWXR

CURRENT HOURLY OBSERVATIONS ACROSS
MUCH OF THE UPPER MISSISSIPPI VALLEY
NATIONAL WEATHER SERVICE LA CROSSE WI
900 PM CST SUN NOV 23 2014


...SOUTHEAST MINNESOTA...


CITY           SKY/WX    TMP DP  RH WIND       PRES   REMARKS
ROCHESTER      LGT RAIN  38  37  97 NW21      29.32F FOG     WCI  28
ROCHESTER/MAYO CLOUDY    38  37  97 W15G23    29.32F WCI  29
WINONA         CLOUDY    41  41 100 NW15      29.28S FOG
AUSTIN         DRIZZLE   37  36  93 NW18G25   29.33F WCI  27
ALBERT LEA     CLOUDY    37  34  87 NW16G28   29.35F WCI  28
DODGE CENTER   DRIZZLE   37  37 100 NW17      29.33S WCI  28
PRESTON        CLOUDY    37  37  98 NW15G22   29.30S FOG     WCI  28
OWATONNA       DRIZZLE   37  34  87 W17       29.36F WCI  28
FARIBAULT      DRIZZLE   37  34  87 W16       29.37S WCI  28
$$

...ELSEWHERE IN MINNESOTA...


CITY           SKY/WX    TMP DP  RH WIND       PRES   REMARKS
MINNEAPOLIS    LGT RAIN  37  35  92 NW13      29.36F WCI  29
INTNL FALLS    LGT RAIN  34  32  92 N6        29.38S FOG     WCI  29
DULUTH         LGT RAIN  35  33  92 NW9       29.33F FOG     WCI  28
RED WING         N/A     39  37  93 NW9       29.33S WCI  33
REDWOOD FALLS  CLOUDY    31  25  78 NW15G33   29.47S WCI  20
MANKATO        CLOUDY    36  28  75 NW24G31   29.40F WCI  24
WORTHINGTON    CLOUDY    30  25  80 NW23G29   29.47F WCI  17
FAIRMONT       CLOUDY    36  25  64 NW20G26   29.42S WCI  25
$$

...SOUTHWEST WISCONSIN...


CITY           SKY/WX    TMP DP  RH WIND       PRES   REMARKS
LA CROSSE      FOG       45  43  93 CALM      29.23F VSB 1
PRAIRIE DU CHI FOG       44  43  96 CALM      29.23F VSB 1/2
BOSCOBEL       FOG       47  46  97 CALM      29.23F VSB 1/2
LONE ROCK      CLOUDY    50  46  86 E5        29.22F FOG
PLATTEVILLE    CLOUDY    46  45  97 E5        29.22F VSB 1/2
FORT MC COY    FOG       44  44 100 CALM      29.25F VSB 1
CAMP DOUGLAS   FOG       46  46 100 E3        29.24F VSB 3/4
VIROQUA        CLOUDY    45  45 100 CALM      29.23F VSB 1/4
WIS DELLS      CLOUDY    46  45  96 CALM      29.23F FOG
$$

...ELSEWHERE IN WISCONSIN...


CITY           SKY/WX    TMP DP  RH WIND       PRES   REMARKS
MILWAUKEE      LGT RAIN  47  45  93 SE6       29.25F VSB 1
MADISON        LGT RAIN  47  46  97 E6        29.23F FOG
GREEN BAY      LGT RAIN  46  45  96 SE10      29.27F FOG
EAU CLAIRE     CLOUDY    42  41  96 NW6       29.25F FOG
BLACK RVR FLS  FOG       46  46 100 CALM      29.24F VSB<1/4
MEDFORD        FOG       42  42 100 E5        29.25F VSB 1/4
WAUSAU         FOG       42  42 100 E7        29.25F VSB 1/4
WIS RAPIDS     CLOUDY    45  43  93 E5        29.27F
MARSHFIELD     FOG       44  43  96 E6        29.24F VSB 1/4
RICE LAKE      DRIZZLE   37  37  99 NW5       29.30F WCI  34
$$

...NORTHEAST IOWA...


CITY           SKY/WX    TMP DP  RH WIND       PRES   REMARKS
DECORAH        LGT RAIN  43  43 100 NW16G22   29.25S
MASON CITY     CLOUDY    37  34  89 NW23G31   29.36F WCI  26
CHARLES CITY   LGT RAIN  39  39 100 NW18G26   29.31F WCI  30
OELWEIN        CLOUDY    41  41 100 NW20G26   29.27S FOG
$$

...ELSEWHERE IN IOWA...


CITY           SKY/WX    TMP DP  RH WIND       PRES   REMARKS
DES MOINES     LGT RAIN  41  36  82 N22G35    29.39S
IOWA CITY      CLOUDY    48  48 100 NW16G22   29.24F
FORT DODGE     CLOUDY    36  28  75 NW12G23   29.42F WCI  27
$$

...NORTHERN ILLINOIS...


CITY           SKY/WX    TMP DP  RH WIND       PRES   REMARKS
CHICAGO-OHARE  RAIN      50  49  96 SE5       29.21F FOG
CHICAGO-MIDWAY RAIN      53  51  93 S5        29.21F
MOLINE         FOG       49  48  97 E3        29.20F VSB 3/4
ROCKFORD       LGT RAIN  49  47  93 E6        29.23F FOG
PEORIA         LGT RAIN  51  48  89 S6        29.21F FOG
$$

NOTE: "FAIR" INDICATES FEW OR NO CLOUDS BELOW 12,000 FEET WITH NO
SIGNIFICANT WEATHER AND/OR OBSTRUCTIONS TO VISIBILITY. WIND
SPEEDS ARE IN MILES-PER-HOUR.



USA.gov is the U.S. government's official web portal to all federal, state and local government web resources and services.